Flag for U.S.A. Weather past 2 weeks in Charlottesville, Virginia, U.S.A.

Now
72 °F

Clear.


Feels Like: 73 °F
Forecast: 67 / 77 °F
Wind: 6 mph from South

Location: Charlottesville-Albemarle Airport

Current Time: Jul 31, 2014 at 11:47:20 PM

Latest Report: Jul 31, 2014 at 10:53 PM


Visibility: 10 mi

Pressure: 30.12 "Hg

Humidity: 78%

Dew point: 65 °F

Location of CharlottesvilleLocation

Historic Weather in Charlottesville — Graph

°F

Charlottesville temperature yesterday

Maximum temperature yesterday: 79 °F (at 3:53 PM)
Minimum temperature yesterday: 55 °F (at 5:53 AM)
Average temperature yesterday: 67 °F

Past Weeks' High & Low Weather Summary

 TemperatureHumidityPressure
High92 °F (Jul 23, 2:53 PM)100% (Jul 24, 9:53 PM)30.23 "Hg (Jul 24, 9:53 PM)
Low55 °F (Jul 30, 5:53 AM)37% (Jul 17, 3:53 PM)29.60 "Hg (Jul 28, 2:53 AM)
Average72 °F73%30.01 "Hg
* Reported Jul 16 9:53 PM — Jul 31 9:53 PM, Charlottesville, Weather by CustomWeather, © 2014

Note: Actual official high and low records may vary slightly from our data, if they occured in-between our weather recording intervals... More about our weather records

Advertising

Charlottesville weather history for previous 24 hours

 ConditionsComfort  
Time TempWeatherWind HumidityBarometerVisibility
9:53 PM
Jul 31
72 °FClear.5 mph76%30.11 "Hg10 mi
8:53 PM74 °FSunny.6 mph67%30.10 "Hg10 mi
7:53 PM77 °FSunny.9 mph58%30.10 "Hg10 mi
6:53 PM80 °FSunny.8 mph52%30.09 "Hg10 mi
5:53 PM83 °FSunny.13 mph43%30.08 "Hg10 mi
4:53 PM84 °FPassing clouds.9 mph41%30.07 "Hg10 mi
3:53 PM83 °FSunny.8 mph40%30.08 "Hg10 mi
2:53 PM84 °FScattered clouds.N/A38%30.09 "Hg10 mi
1:53 PM83 °FSunny.6 mph43%30.09 "Hg10 mi
12:53 PM82 °FSunny.8 mph43%30.10 "Hg10 mi
11:53 AM80 °FSunny.No wind49%30.10 "Hg10 mi
10:53 AM78 °FSunny.8 mph52%30.11 "Hg10 mi
9:53 AM73 °FSunny.3 mph64%30.10 "Hg10 mi
8:53 AM68 °FSunny.3 mph78%30.10 "Hg10 mi
7:53 AM63 °FSunny.3 mph84%30.10 "Hg9 mi
6:53 AM59 °FClear.No wind90%30.09 "Hg10 mi
5:53 AM58 °FClear.No wind93%30.08 "Hg10 mi
4:53 AM60 °FClear.3 mph86%30.07 "Hg10 mi
3:53 AM59 °FClear.3 mph93%30.06 "Hg8 mi
2:53 AM60 °FClear.5 mph93%30.06 "Hg10 mi
1:53 AM61 °FClear.No wind90%30.07 "Hg10 mi
12:53 AM62 °FClear.3 mph90%30.06 "Hg9 mi
11:53 PM
Jul 30
62 °FClear.No wind86%30.06 "Hg10 mi
Weather by CustomWeather, © 2014

See weather overviewHow to use our weather pages